Tracking 35030 objects as of 11-Aug-2026
HD Live streaming from Space Station
objects crossing your sky now

CENTISPACE-1 S15

Track CENTISPACE-1 S15 now!
10-day predictions


NORAD ID: 62584
Int'l Code: 2025-007K
Launch date: January 13, 2025
Source: People's Republic of China (PRC)
Launch site: Yellow Sea Launch Area, China (YSLA)
Your satellite tracking list
Your tracking list is empty




NASA's NSSDC Master Catalog

Two Line Element Set (TLE):
1 62584U 25007K   26223.43576616 -.00000074  00000-0  62769-4 0  9998
2 62584  54.9860  99.3887 0013236 173.8742 186.2378 13.80578578 82366
Source of the keplerian elements: AFSPC